Winnemucca, NV

6:51 PM PST on February 25, 2017 (GMT -0800)
Winnemucca Municipal

Weather History for KWMC - November, 2012

Change the Weather History Date:

Friday, November 2, 2012

  Actual Average Record
Temperature  
Mean Temperature 42 °F 42 °F  
Max Temperature 62 °F 58 °F 75 °F (1942)
Min Temperature 22 °F 25 °F -3 °F (2002)
Degree Days  
Heating Degree Days 23 23  
Month to date heating degree days 45 46  
Since 1 July heating degree days 584 771  
Cooling Degree Days 0 0  
Month to date cooling degree days 0 0  
Year to date cooling degree days 681 541  
Moisture  
Dew Point 28 °F    
Average Humidity 64    
Maximum Humidity 96    
Minimum Humidity 32    
Precipitation  
Precipitation 0.00 in 0.02 in 0.91 in (2015)
Month to date precipitation T 0.05  
Year to date precipitation 3.94 6.52  
Snow  
Snow 0.00 in 0.10 in 4.80 in (1935)
Month to date snowfall 0.0 0.1  
Since 1 July snowfall 1.3 0.6  
Since 1 September snowfall 1.3 0.6  
Snow Depth 0.00 in    
Sea Level Pressure  
Sea Level Pressure 30.13 in    
Wind  
Wind Speed 4 mph (SE)    
Max Wind Speed 10 mph    
Max Gust Speed 16 mph    
Visibility 10 miles    
Events      
T = Trace of Precipitation, MM = Missing Value Source: NWS Daily Summary

Daily Weather History Graph

Daily Weather History Graph

Search for Another Location

Airport or City:

Trip Planner

Search our weather history database for the weather conditions in past years. The results will help you decide how hot, cold, wet, or windy it might be!

Date:

Astronomy

Nov. 02, 2012 Rise Set
Actual Time 7:23 AM PDT 5:45 PM PDT
Civil Twilight 6:55 AM PDT 6:13 PM PDT
Nautical Twilight 6:22 AM PDT 6:46 PM PDT
Astronomical Twilight 5:50 AM PDT 7:18 PM PDT
Moon 8:35 PM PDT (11/2) 10:48 AM PDT (11/2)
Length of Visible Light 11h 18m
Length of Day
10h 21m
Waning Gibbous, 86% of the Moon is Illuminated
Nov 2
Waning Gibbous
Nov 6
Last Quarter
Nov 13
New
Nov 20
First Quarter
Nov 28
Full

Hourly Weather History & Observations

Time (PDT) Temp. Windchill Dew Point Humidity Pressure Visibility Wind Dir Wind Speed Gust Speed Precip Events Conditions
12:56 AM 27.0 °F 20.5 °F 25.0 °F 92% 30.10 in 10.0 mi South 5.8 mph - N/A   Clear
1:56 AM 30.0 °F 23.2 °F 27.0 °F 88% 30.10 in 10.0 mi SSE 6.9 mph - N/A   Clear
2:56 AM 27.0 °F - 25.0 °F 92% 30.11 in 10.0 mi Calm Calm - N/A   Clear
3:56 AM 27.0 °F 20.5 °F 24.1 °F 89% 30.12 in 10.0 mi SSE 5.8 mph - N/A   Clear
4:56 AM 26.1 °F 18.4 °F 24.1 °F 92% 30.12 in 10.0 mi South 6.9 mph - N/A   Clear
5:56 AM 26.1 °F 19.4 °F 24.1 °F 92% 30.14 in 10.0 mi ESE 5.8 mph - N/A   Clear
6:56 AM 23.0 °F 18.4 °F 21.9 °F 96% 30.16 in 10.0 mi West 3.5 mph - N/A   Clear
7:56 AM 21.9 °F 17.2 °F 19.9 °F 92% 30.19 in 10.0 mi South 3.5 mph - N/A   Clear
8:56 AM 32.0 °F 28.7 °F 28.0 °F 85% 30.19 in 10.0 mi SE 3.5 mph - N/A   Clear
9:56 AM 44.1 °F 40.1 °F 34.0 °F 68% 30.17 in 10.0 mi ENE 6.9 mph - N/A   Clear
10:56 AM 50.0 °F - 34.0 °F 54% 30.15 in 10.0 mi NNE 3.5 mph - N/A   Clear
11:56 AM 54.0 °F - 34.0 °F 47% 30.14 in 10.0 mi NE 5.8 mph - N/A   Clear
12:56 PM 57.0 °F - 32.0 °F 39% 30.13 in 10.0 mi Calm Calm - N/A   Clear
1:56 PM 60.1 °F - 30.9 °F 33% 30.09 in 10.0 mi NNE 3.5 mph - N/A   Clear
2:56 PM 61.0 °F - 30.9 °F 32% 30.08 in 10.0 mi Variable 3.5 mph - N/A   Clear
3:56 PM 61.0 °F - 30.0 °F 31% 30.08 in 10.0 mi NW 5.8 mph - N/A   Clear
4:56 PM 57.9 °F - 28.9 °F 33% 30.09 in 10.0 mi Calm Calm - N/A   Clear
5:56 PM 52.0 °F - 30.0 °F 43% 30.10 in 10.0 mi Calm Calm - N/A   Clear
6:56 PM 44.1 °F - 28.9 °F 55% 30.14 in 10.0 mi Calm Calm - N/A   Clear
7:56 PM 37.9 °F 35.5 °F 27.0 °F 65% 30.17 in 10.0 mi NNW 3.5 mph - N/A   Clear
8:56 PM 32.0 °F 27.5 °F 24.1 °F 73% 30.17 in 10.0 mi South 4.6 mph - N/A   Clear
9:56 PM 34.0 °F 28.0 °F 26.1 °F 73% 30.14 in 10.0 mi SE 6.9 mph - N/A   Clear
10:56 PM 35.1 °F 30.1 °F 26.1 °F 70% 30.13 in 10.0 mi SSE 5.8 mph - N/A   Clear
11:56 PM 32.0 °F - 24.1 °F 73% 30.14 in 10.0 mi Calm Calm - N/A   Clear